Time,TemperatureF,DewpointF,PressureIn,WindDirection,WindDirectionDegrees,WindSpeedMPH,WindSpeedGustMPH,Humidity,HourlyPrecipIn,Conditions,Clouds,dailyrainin,SoftwareType,DateUTC
2013-09-07 00:00:00,51.3,50.5,29.83,WNW,288,0.0,0.0,97,0.00,,,0.00,WeatherCatV1.21B27,2013-09-06 23:00:00,
2013-09-07 00:05:00,51.4,50.6,29.83,WNW,288,0.0,0.0,97,0.00,,,0.00,WeatherCatV1.21B27,2013-09-06 23:05:00,
2013-09-07 00:10:00,51.6,50.8,29.83,WNW,288,0.0,0.0,97,0.00,,,0.00,WeatherCatV1.21B27,2013-09-06 23:10:00,
2013-09-07 00:15:00,51.7,50.9,29.83,WNW,288,0.0,0.0,97,0.00,,,0.00,WeatherCatV1.21B27,2013-09-06 23:15:00,
2013-09-07 00:20:00,51.9,51.1,29.83,WNW,288,0.0,0.0,97,0.00,,,0.00,WeatherCatV1.21B27,2013-09-06 23:20:00,
2013-09-07 00:25:00,52.1,51.3,29.83,WNW,288,0.0,0.0,97,0.00,,,0.00,WeatherCatV1.21B27,2013-09-06 23:25:00,
2013-09-07 00:30:00,52.1,51.3,29.83,WNW,288,0.0,0.0,97,0.00,,,0.00,WeatherCatV1.21B27,2013-09-06 23:30:00,
2013-09-07 00:35:00,52.0,51.2,29.83,WNW,288,0.0,0.0,97,0.00,,,0.00,WeatherCatV1.21B27,2013-09-06 23:35:00,
2013-09-07 00:40:00,52.0,51.2,29.83,WNW,288,0.0,0.0,97,0.00,,,0.00,WeatherCatV1.21B27,2013-09-06 23:40:00,
2013-09-07 00:45:00,52.0,51.2,29.83,WNW,288,0.0,0.0,97,0.00,,,0.00,WeatherCatV1.21B27,2013-09-06 23:45:00,
2013-09-07 00:50:00,52.0,51.2,29.83,WNW,288,0.0,0.0,97,0.00,,,0.00,WeatherCatV1.21B27,2013-09-06 23:50:00,
2013-09-07 00:55:00,52.0,51.2,29.83,WNW,288,0.0,0.0,97,0.00,,,0.00,WeatherCatV1.21B27,2013-09-06 23:55:00,
2013-09-07 01:00:00,52.0,51.2,29.83,WNW,288,0.0,0.0,97,0.00,,,0.00,WeatherCatV1.21B27,2013-09-07 00:00:00,
2013-09-07 01:05:00,51.8,51.0,29.83,WNW,288,0.0,0.0,97,0.00,,,0.00,WeatherCatV1.21B27,2013-09-07 00:05:00,
2013-09-07 01:10:00,51.8,51.0,29.83,WNW,288,0.0,0.0,97,0.00,,,0.00,WeatherCatV1.21B27,2013-09-07 00:10:00,
2013-09-07 01:15:00,51.8,51.0,29.83,WNW,288,0.0,0.0,97,0.00,,,0.00,WeatherCatV1.21B27,2013-09-07 00:15:00,
2013-09-07 01:20:00,51.8,51.0,29.83,WNW,288,0.0,0.0,97,0.00,,,0.00,WeatherCatV1.21B27,2013-09-07 00:20:00,
2013-09-07 01:25:00,51.8,51.0,29.83,WNW,288,0.0,0.0,97,0.00,,,0.00,WeatherCatV1.21B27,2013-09-07 00:25:00,
2013-09-07 01:30:00,51.6,50.8,29.83,WNW,288,0.0,0.0,97,0.00,,,0.00,WeatherCatV1.21B27,2013-09-07 00:30:00,
2013-09-07 01:35:00,51.6,50.8,29.83,WNW,288,0.0,0.0,97,0.00,,,0.00,WeatherCatV1.21B27,2013-09-07 00:35:00,
2013-09-07 01:40:00,51.6,50.8,29.83,WNW,288,0.0,0.0,97,0.00,,,0.00,WeatherCatV1.21B27,2013-09-07 00:40:00,
2013-09-07 01:45:00,51.6,50.8,29.83,WNW,288,0.0,0.0,97,0.00,,,0.00,WeatherCatV1.21B27,2013-09-07 00:45:00,
2013-09-07 01:50:00,51.6,50.8,29.83,WNW,288,0.0,0.0,97,0.00,,,0.00,WeatherCatV1.21B27,2013-09-07 00:50:00,
2013-09-07 01:55:00,51.6,50.8,29.83,WNW,288,0.0,0.0,97,0.00,,,0.00,WeatherCatV1.21B27,2013-09-07 00:55:00,
2013-09-07 02:00:00,51.6,50.8,29.83,WNW,288,0.0,0.0,97,0.00,,,0.00,WeatherCatV1.21B27,2013-09-07 01:00:00,
2013-09-07 02:05:00,51.4,50.6,29.84,WNW,288,0.0,0.0,97,0.00,,,0.00,WeatherCatV1.21B27,2013-09-07 01:05:00,
2013-09-07 02:10:00,51.4,50.6,29.84,WNW,288,0.0,0.0,97,0.00,,,0.00,WeatherCatV1.21B27,2013-09-07 01:10:00,
2013-09-07 02:15:00,51.4,50.6,29.84,WNW,288,0.0,0.0,97,0.00,,,0.00,WeatherCatV1.21B27,2013-09-07 01:15:00,
2013-09-07 02:20:00,51.4,50.6,29.84,WNW,288,0.0,0.0,97,0.00,,,0.00,WeatherCatV1.21B27,2013-09-07 01:20:00,
2013-09-07 02:25:00,51.4,50.6,29.84,WNW,288,0.0,0.0,97,0.00,,,0.00,WeatherCatV1.21B27,2013-09-07 01:25:00,
2013-09-07 02:30:00,51.4,50.6,29.84,WNW,288,0.0,0.0,97,0.00,,,0.00,WeatherCatV1.21B27,2013-09-07 01:30:00,
2013-09-07 02:35:00,51.2,50.4,29.84,WNW,288,0.0,0.0,97,0.00,,,0.00,WeatherCatV1.21B27,2013-09-07 01:35:00,
2013-09-07 02:40:00,51.2,50.4,29.84,WNW,288,0.0,0.0,97,0.00,,,0.00,WeatherCatV1.21B27,2013-09-07 01:40:00,
2013-09-07 02:45:00,51.2,50.4,29.84,WNW,288,0.0,0.0,97,0.00,,,0.00,WeatherCatV1.21B27,2013-09-07 01:45:00,
2013-09-07 02:50:00,51.2,50.4,29.84,WNW,288,0.0,0.0,97,0.00,,,0.00,WeatherCatV1.21B27,2013-09-07 01:50:00,
2013-09-07 02:55:00,51.2,50.4,29.84,WNW,288,0.0,0.0,97,0.00,,,0.00,WeatherCatV1.21B27,2013-09-07 01:55:00,
2013-09-07 03:00:00,51.2,50.4,29.84,WNW,288,0.0,0.0,97,0.00,,,0.00,WeatherCatV1.21B27,2013-09-07 02:00:00,
2013-09-07 03:05:00,51.0,50.2,29.84,WNW,288,0.0,0.0,97,0.00,,,0.00,WeatherCatV1.21B27,2013-09-07 02:05:00,
2013-09-07 03:10:00,51.0,50.2,29.84,WNW,288,0.0,0.0,97,0.00,,,0.00,WeatherCatV1.21B27,2013-09-07 02:10:00,
2013-09-07 03:15:00,51.0,50.2,29.84,WNW,288,0.0,0.0,97,0.00,,,0.00,WeatherCatV1.21B27,2013-09-07 02:15:00,
2013-09-07 03:20:00,51.0,50.2,29.84,WNW,288,0.0,0.0,97,0.00,,,0.00,WeatherCatV1.21B27,2013-09-07 02:20:00,
2013-09-07 03:25:00,51.0,50.2,29.84,WNW,288,0.0,0.0,97,0.00,,,0.00,WeatherCatV1.21B27,2013-09-07 02:25:00,
2013-09-07 03:30:00,51.0,50.2,29.84,WNW,288,0.0,0.0,97,0.00,,,0.00,WeatherCatV1.21B27,2013-09-07 02:30:00,
2013-09-07 03:35:00,50.8,50.0,29.85,WNW,288,0.0,0.0,97,0.00,,,0.00,WeatherCatV1.21B27,2013-09-07 02:35:00,
2013-09-07 03:40:00,50.8,50.0,29.85,WNW,288,0.0,0.0,97,0.00,,,0.00,WeatherCatV1.21B27,2013-09-07 02:40:00,
2013-09-07 03:45:00,50.8,50.0,29.85,WNW,288,0.0,0.0,97,0.00,,,0.00,WeatherCatV1.21B27,2013-09-07 02:45:00,
2013-09-07 03:50:00,50.8,50.0,29.85,WNW,288,0.0,0.0,97,0.00,,,0.00,WeatherCatV1.21B27,2013-09-07 02:50:00,
2013-09-07 03:55:00,50.8,50.0,29.85,WNW,288,0.0,0.0,97,0.00,,,0.00,WeatherCatV1.21B27,2013-09-07 02:55:00,
2013-09-07 04:00:00,50.8,50.0,29.85,WNW,288,0.0,0.0,97,0.00,,,0.00,WeatherCatV1.21B27,2013-09-07 03:00:00,
2013-09-07 04:05:00,50.6,49.7,29.85,WNW,288,0.0,0.0,97,0.00,,,0.00,WeatherCatV1.21B27,2013-09-07 03:05:00,
2013-09-07 04:10:00,50.6,49.7,29.85,WNW,288,0.0,0.0,97,0.00,,,0.00,WeatherCatV1.21B27,2013-09-07 03:10:00,
2013-09-07 04:15:00,50.6,49.7,29.85,WNW,288,0.0,0.0,97,0.00,,,0.00,WeatherCatV1.21B27,2013-09-07 03:15:00,
2013-09-07 04:20:00,50.6,49.7,29.85,WNW,288,0.0,0.0,97,0.00,,,0.00,WeatherCatV1.21B27,2013-09-07 03:20:00,
2013-09-07 04:25:00,50.6,49.7,29.85,WNW,288,0.0,0.0,97,0.00,,,0.00,WeatherCatV1.21B27,2013-09-07 03:25:00,
2013-09-07 04:30:00,50.3,49.5,29.85,WNW,288,0.0,0.0,97,0.00,,,0.00,WeatherCatV1.21B27,2013-09-07 03:30:00,
2013-09-07 04:35:00,50.3,49.5,29.85,WNW,288,0.0,0.0,97,0.00,,,0.00,WeatherCatV1.21B27,2013-09-07 03:35:00,
2013-09-07 04:40:00,50.3,49.5,29.85,WNW,288,0.0,0.0,97,0.00,,,0.00,WeatherCatV1.21B27,2013-09-07 03:40:00,
2013-09-07 04:45:00,50.3,49.5,29.85,WNW,288,0.0,0.0,97,0.00,,,0.00,WeatherCatV1.21B27,2013-09-07 03:45:00,
2013-09-07 04:50:00,50.3,49.5,29.85,WNW,288,0.0,0.0,97,0.00,,,0.00,WeatherCatV1.21B27,2013-09-07 03:50:00,
2013-09-07 04:55:00,50.3,49.5,29.85,WNW,288,0.0,0.0,97,0.00,,,0.00,WeatherCatV1.21B27,2013-09-07 03:55:00,
2013-09-07 05:00:00,50.1,49.3,29.86,WNW,288,0.0,0.0,97,0.00,,,0.00,WeatherCatV1.21B27,2013-09-07 04:00:00,
2013-09-07 05:05:00,50.1,49.3,29.86,WNW,288,0.0,0.0,97,0.00,,,0.00,WeatherCatV1.21B27,2013-09-07 04:05:00,
2013-09-07 05:10:00,50.1,49.3,29.86,WNW,288,0.0,0.0,97,0.00,,,0.00,WeatherCatV1.21B27,2013-09-07 04:10:00,
2013-09-07 05:15:00,50.1,49.3,29.86,WNW,288,0.0,0.0,97,0.00,,,0.00,WeatherCatV1.21B27,2013-09-07 04:15:00,
2013-09-07 05:20:00,50.1,49.3,29.86,WNW,288,0.0,0.0,97,0.00,,,0.00,WeatherCatV1.21B27,2013-09-07 04:20:00,
2013-09-07 05:25:00,50.1,49.3,29.86,WNW,288,0.0,0.0,97,0.00,,,0.00,WeatherCatV1.21B27,2013-09-07 04:25:00,
2013-09-07 05:30:00,50.1,49.3,29.86,WNW,288,0.0,0.0,97,0.00,,,0.00,WeatherCatV1.21B27,2013-09-07 04:30:00,
2013-09-07 05:35:00,49.9,49.1,29.86,WNW,288,0.0,0.0,97,0.00,,,0.00,WeatherCatV1.21B27,2013-09-07 04:35:00,
2013-09-07 05:40:00,49.9,49.1,29.86,WNW,288,0.0,0.0,97,0.00,,,0.00,WeatherCatV1.21B27,2013-09-07 04:40:00,
2013-09-07 05:45:00,49.9,49.1,29.86,WNW,288,0.0,0.0,97,0.00,,,0.00,WeatherCatV1.21B27,2013-09-07 04:45:00,
2013-09-07 05:50:00,49.9,49.1,29.86,WNW,288,0.0,0.0,97,0.00,,,0.00,WeatherCatV1.21B27,2013-09-07 04:50:00,
2013-09-07 05:55:00,49.9,49.1,29.86,WNW,288,0.0,0.0,97,0.00,,,0.00,WeatherCatV1.21B27,2013-09-07 04:55:00,
2013-09-07 06:05:00,49.9,49.1,29.86,WNW,288,0.0,0.0,97,0.00,,,0.00,WeatherCatV1.21B27,2013-09-07 05:05:00,
2013-09-07 06:10:00,49.7,48.6,29.86,WNW,288,0.0,0.0,96,0.00,,,0.01,WeatherCatV1.21B27,2013-09-07 05:10:00,
2013-09-07 06:15:00,49.4,48.3,29.86,WNW,288,0.0,0.0,96,0.00,,,0.01,WeatherCatV1.21B27,2013-09-07 05:15:00,
2013-09-07 06:20:00,49.1,48.0,29.86,WNW,288,0.0,0.0,96,0.00,,,0.01,WeatherCatV1.21B27,2013-09-07 05:20:00,
2013-09-07 06:25:00,48.7,47.6,29.86,WNW,288,0.0,0.0,96,0.00,,,0.01,WeatherCatV1.21B27,2013-09-07 05:25:00,
2013-09-07 06:30:00,48.4,47.3,29.86,WNW,288,0.0,0.0,96,0.00,,,0.01,WeatherCatV1.21B27,2013-09-07 05:30:00,
2013-09-07 06:35:00,48.2,47.1,29.86,WNW,288,0.0,0.0,96,0.00,,,0.01,WeatherCatV1.21B27,2013-09-07 05:35:00,
2013-09-07 06:40:00,47.9,46.8,29.86,WNW,288,0.0,0.0,96,0.00,,,0.01,WeatherCatV1.21B27,2013-09-07 05:40:00,
2013-09-07 06:45:00,47.8,46.7,29.86,WNW,288,0.0,0.0,96,0.00,,,0.01,WeatherCatV1.21B27,2013-09-07 05:45:00,
2013-09-07 06:50:00,47.8,46.7,29.87,WNW,288,0.0,0.0,96,0.00,,,0.01,WeatherCatV1.21B27,2013-09-07 05:50:00,
2013-09-07 06:55:00,48.0,47.2,29.87,North,355,0.0,0.0,97,0.00,,,0.01,WeatherCatV1.21B27,2013-09-07 05:55:00,
2013-09-07 07:00:00,48.6,47.8,29.87,North,355,0.0,0.0,97,0.00,,,0.01,WeatherCatV1.21B27,2013-09-07 06:00:00,
2013-09-07 07:05:00,48.9,48.1,29.88,North,356,0.0,0.0,97,0.00,,,0.01,WeatherCatV1.21B27,2013-09-07 06:05:00,
2013-09-07 07:10:00,49.2,48.4,29.87,North,356,0.0,0.0,97,0.00,,,0.01,WeatherCatV1.21B27,2013-09-07 06:10:00,
2013-09-07 07:15:00,49.5,48.7,29.87,North,355,0.0,0.0,97,0.00,,,0.01,WeatherCatV1.21B27,2013-09-07 06:15:00,
2013-09-07 07:20:00,49.5,48.7,29.87,North,356,0.0,0.0,97,0.00,,,0.01,WeatherCatV1.21B27,2013-09-07 06:20:00,
2013-09-07 07:25:00,49.6,48.8,29.87,North,355,0.0,0.0,97,0.00,,,0.01,WeatherCatV1.21B27,2013-09-07 06:25:00,
2013-09-07 07:30:00,49.8,49.0,29.88,North,355,0.0,0.0,97,0.00,,,0.01,WeatherCatV1.21B27,2013-09-07 06:30:00,
2013-09-07 07:35:00,50.0,49.2,29.88,North,356,0.0,0.0,97,0.00,,,0.01,WeatherCatV1.21B27,2013-09-07 06:35:00,
2013-09-07 07:40:00,50.3,49.5,29.88,North,355,0.0,0.0,97,0.00,,,0.01,WeatherCatV1.21B27,2013-09-07 06:40:00,
2013-09-07 07:45:00,50.4,49.6,29.88,North,355,0.0,0.0,97,0.00,,,0.01,WeatherCatV1.21B27,2013-09-07 06:45:00,
2013-09-07 07:50:00,50.6,49.8,29.88,North,355,0.0,0.0,97,0.00,,,0.01,WeatherCatV1.21B27,2013-09-07 06:50:00,
2013-09-07 07:55:00,50.8,50.0,29.88,North,355,0.0,0.0,97,0.00,,,0.02,WeatherCatV1.21B27,2013-09-07 06:55:00,
2013-09-07 08:00:00,50.9,50.1,29.88,North,355,0.0,0.0,97,0.00,,,0.02,WeatherCatV1.21B27,2013-09-07 07:00:00,
2013-09-07 08:05:00,51.1,50.3,29.88,North,355,0.0,0.0,97,0.00,,,0.02,WeatherCatV1.21B27,2013-09-07 07:05:00,
2013-09-07 08:10:00,51.3,50.5,29.88,North,355,0.0,0.0,97,0.00,,,0.02,WeatherCatV1.21B27,2013-09-07 07:10:00,
2013-09-07 08:15:00,51.6,51.0,29.88,North,355,0.0,0.0,98,0.00,,,0.02,WeatherCatV1.21B27,2013-09-07 07:15:00,
2013-09-07 08:20:00,52.4,51.8,29.88,North,355,0.0,0.0,98,0.00,,,0.02,WeatherCatV1.21B27,2013-09-07 07:20:00,
2013-09-07 08:25:00,52.8,52.2,29.88,North,355,0.0,0.0,98,0.00,,,0.02,WeatherCatV1.21B27,2013-09-07 07:25:00,
2013-09-07 08:30:00,53.0,52.5,29.88,North,355,0.0,0.0,98,0.00,,,0.02,WeatherCatV1.21B27,2013-09-07 07:30:00,
2013-09-07 08:35:00,53.2,52.7,29.89,North,356,0.0,0.0,98,0.00,,,0.02,WeatherCatV1.21B27,2013-09-07 07:35:00,
2013-09-07 08:40:00,53.2,52.4,29.89,North,355,0.0,0.0,97,0.00,,,0.02,WeatherCatV1.21B27,2013-09-07 07:40:00,
2013-09-07 08:45:00,53.4,52.6,29.89,North,356,0.0,0.0,97,0.00,,,0.02,WeatherCatV1.21B27,2013-09-07 07:45:00,
2013-09-07 08:50:00,53.6,52.8,29.89,North,356,0.0,0.0,97,0.00,,,0.02,WeatherCatV1.21B27,2013-09-07 07:50:00,
2013-09-07 08:55:00,53.9,53.1,29.89,North,356,0.0,0.0,97,0.00,,,0.02,WeatherCatV1.21B27,2013-09-07 07:55:00,
2013-09-07 09:00:00,54.0,53.2,29.89,North,355,0.0,0.0,97,0.00,,,0.02,WeatherCatV1.21B27,2013-09-07 08:00:00,
2013-09-07 09:05:00,53.9,52.8,29.90,North,355,0.0,0.0,96,0.00,,,0.02,WeatherCatV1.21B27,2013-09-07 08:05:00,
2013-09-07 09:10:00,53.8,52.7,29.90,North,355,0.0,0.0,96,0.00,,,0.02,WeatherCatV1.21B27,2013-09-07 08:10:00,
2013-09-07 09:15:00,53.8,52.7,29.90,North,355,0.0,0.0,96,0.00,,,0.02,WeatherCatV1.21B27,2013-09-07 08:15:00,
2013-09-07 09:20:00,53.7,52.3,29.90,WNW,292,0.0,1.0,95,0.00,,,0.02,WeatherCatV1.21B27,2013-09-07 08:20:00,
2013-09-07 09:25:00,53.7,52.3,29.90,WNW,293,0.0,0.0,95,0.00,,,0.02,WeatherCatV1.21B27,2013-09-07 08:25:00,
2013-09-07 09:30:00,53.8,52.4,29.90,WNW,292,0.0,0.0,95,0.00,,,0.02,WeatherCatV1.21B27,2013-09-07 08:30:00,
2013-09-07 09:35:00,54.0,52.6,29.90,WNW,293,0.0,0.0,95,0.00,,,0.02,WeatherCatV1.21B27,2013-09-07 08:35:00,
2013-09-07 09:40:00,54.1,52.7,29.90,WNW,292,0.0,0.0,95,0.00,,,0.02,WeatherCatV1.21B27,2013-09-07 08:40:00,
2013-09-07 09:45:00,54.3,52.9,29.91,WNW,293,0.0,0.0,95,0.00,,,0.02,WeatherCatV1.21B27,2013-09-07 08:45:00,
2013-09-07 09:50:00,54.4,52.7,29.91,WNW,293,0.0,0.0,94,0.00,,,0.02,WeatherCatV1.21B27,2013-09-07 08:50:00,
2013-09-07 09:55:00,54.4,52.4,29.91,North,1,0.0,0.0,93,0.00,,,0.02,WeatherCatV1.21B27,2013-09-07 08:55:00,
2013-09-07 10:00:00,54.5,52.5,29.91,North,1,0.0,0.0,93,0.00,,,0.02,WeatherCatV1.21B27,2013-09-07 09:00:00,
2013-09-07 10:05:00,54.6,52.6,29.91,North,1,0.0,1.0,93,0.00,,,0.02,WeatherCatV1.21B27,2013-09-07 09:05:00,
2013-09-07 10:10:00,54.7,52.4,29.91,North,1,0.0,1.0,92,0.00,,,0.02,WeatherCatV1.21B27,2013-09-07 09:10:00,
2013-09-07 10:15:00,55.1,53.1,29.91,North,1,0.0,0.0,93,0.00,,,0.02,WeatherCatV1.21B27,2013-09-07 09:15:00,
2013-09-07 10:20:00,55.7,53.7,29.92,North,1,0.0,0.0,93,0.00,,,0.02,WeatherCatV1.21B27,2013-09-07 09:20:00,
2013-09-07 10:25:00,56.2,53.6,29.92,North,1,0.0,0.0,91,0.00,,,0.02,WeatherCatV1.21B27,2013-09-07 09:25:00,
2013-09-07 10:30:00,56.7,53.8,29.92,North,0,0.0,0.0,90,0.00,,,0.02,WeatherCatV1.21B27,2013-09-07 09:30:00,
2013-09-07 10:35:00,57.0,53.5,29.92,North,0,0.0,0.0,88,0.00,,,0.02,WeatherCatV1.21B27,2013-09-07 09:35:00,
2013-09-07 10:40:00,57.5,54.0,29.92,North,0,0.0,0.0,88,0.00,,,0.02,WeatherCatV1.21B27,2013-09-07 09:40:00,
2013-09-07 10:45:00,58.2,54.3,29.92,WSW,249,0.0,0.0,87,0.00,,,0.02,WeatherCatV1.21B27,2013-09-07 09:45:00,
2013-09-07 10:50:00,58.9,54.7,29.92,WSW,249,0.0,0.0,86,0.00,,,0.02,WeatherCatV1.21B27,2013-09-07 09:50:00,
2013-09-07 10:55:00,59.3,54.1,29.92,WSW,239,0.0,1.0,83,0.00,,,0.02,WeatherCatV1.21B27,2013-09-07 09:55:00,
2013-09-07 11:00:00,59.6,54.4,29.92,WSW,239,0.0,1.0,83,0.00,,,0.02,WeatherCatV1.21B27,2013-09-07 10:00:00,
2013-09-07 11:05:00,59.9,54.0,29.92,WSW,239,0.0,1.0,81,0.00,,,0.02,WeatherCatV1.21B27,2013-09-07 10:05:00,
2013-09-07 11:10:00,60.2,53.3,29.92,SE,130,1.0,1.0,78,0.00,,,0.02,WeatherCatV1.21B27,2013-09-07 10:10:00,
2013-09-07 11:15:00,60.7,54.5,29.92,ENE,63,0.0,1.0,80,0.00,,,0.02,WeatherCatV1.21B27,2013-09-07 10:15:00,
2013-09-07 11:20:00,61.3,54.7,29.93,East,84,0.0,2.0,79,0.00,,,0.02,WeatherCatV1.21B27,2013-09-07 10:20:00,
2013-09-07 11:25:00,61.5,53.1,29.93,NE,56,1.0,1.0,74,0.00,,,0.02,WeatherCatV1.21B27,2013-09-07 10:25:00,
2013-09-07 11:30:00,61.0,52.7,29.94,East,84,1.0,4.0,74,0.00,,,0.02,WeatherCatV1.21B27,2013-09-07 10:30:00,
2013-09-07 11:35:00,59.5,53.7,29.94,NW,319,0.0,1.0,81,0.11,,,0.03,WeatherCatV1.21B27,2013-09-07 10:35:00,
2013-09-07 11:40:00,58.4,52.9,29.94,NW,324,0.0,0.0,82,0.07,,,0.03,WeatherCatV1.21B27,2013-09-07 10:40:00,
2013-09-07 11:45:00,57.6,52.5,29.94,West,260,0.0,2.0,83,0.04,,,0.03,WeatherCatV1.21B27,2013-09-07 10:45:00,
2013-09-07 11:50:00,57.4,52.9,29.94,North,4,0.0,0.0,85,0.03,,,0.03,WeatherCatV1.21B27,2013-09-07 10:50:00,
2013-09-07 11:55:00,57.0,52.2,29.94,North,1,0.0,1.0,84,0.00,,,0.03,WeatherCatV1.21B27,2013-09-07 10:55:00,
2013-09-07 12:00:00,57.5,53.7,29.94,North,1,0.0,1.0,87,0.00,,,0.03,WeatherCatV1.21B27,2013-09-07 11:00:00,
2013-09-07 12:05:00,58.6,54.1,29.94,North,1,0.0,0.0,85,0.00,,,0.03,WeatherCatV1.21B27,2013-09-07 11:05:00,
2013-09-07 12:10:00,59.8,55.3,29.94,North,1,0.0,0.0,85,0.00,,,0.03,WeatherCatV1.21B27,2013-09-07 11:10:00,
2013-09-07 12:15:00,60.2,53.7,29.94,NNE,20,0.0,1.0,79,0.00,,,0.03,WeatherCatV1.21B27,2013-09-07 11:15:00,
2013-09-07 12:20:00,60.6,53.7,29.94,NNE,20,0.0,0.0,78,0.00,,,0.03,WeatherCatV1.21B27,2013-09-07 11:20:00,
2013-09-07 12:25:00,60.6,53.3,29.94,WSW,250,0.0,1.0,77,0.00,,,0.03,WeatherCatV1.21B27,2013-09-07 11:25:00,
2013-09-07 12:30:00,61.0,53.7,29.94,NNE,32,0.0,2.0,77,0.00,,,0.03,WeatherCatV1.21B27,2013-09-07 11:30:00,
2013-09-07 12:35:00,61.9,52.4,29.94,NE,39,0.0,1.0,71,0.00,,,0.03,WeatherCatV1.21B27,2013-09-07 11:35:00,
2013-09-07 12:40:00,63.0,53.4,29.94,NE,47,0.0,2.0,71,0.00,,,0.03,WeatherCatV1.21B27,2013-09-07 11:40:00,
2013-09-07 12:45:00,64.1,52.9,29.94,West,276,2.0,4.0,67,0.00,,,0.03,WeatherCatV1.21B27,2013-09-07 11:45:00,
2013-09-07 12:50:00,64.5,53.7,29.94,North,8,0.0,0.0,68,0.00,,,0.03,WeatherCatV1.21B27,2013-09-07 11:50:00,
2013-09-07 12:55:00,64.2,53.0,29.94,North,1,0.0,0.0,67,0.00,,,0.03,WeatherCatV1.21B27,2013-09-07 11:55:00,
2013-09-07 13:00:00,63.3,51.7,29.94,NE,39,0.0,2.0,66,0.00,,,0.03,WeatherCatV1.21B27,2013-09-07 12:00:00,
2013-09-07 13:05:00,62.6,51.5,29.94,NNE,32,0.0,1.0,67,0.00,,,0.03,WeatherCatV1.21B27,2013-09-07 12:05:00,
2013-09-07 13:10:00,62.2,51.9,29.94,NE,46,1.0,2.0,69,0.00,,,0.03,WeatherCatV1.21B27,2013-09-07 12:10:00,
2013-09-07 13:15:00,62.3,52.4,29.94,NNE,23,0.0,2.0,70,0.00,,,0.03,WeatherCatV1.21B27,2013-09-07 12:15:00,
2013-09-07 13:20:00,63.6,54.0,29.94,NNW,334,2.0,2.0,71,0.00,,,0.03,WeatherCatV1.21B27,2013-09-07 12:20:00,
2013-09-07 13:25:00,63.9,51.9,29.94,ENE,63,0.0,3.0,65,0.00,,,0.03,WeatherCatV1.21B27,2013-09-07 12:25:00,
2013-09-07 13:30:00,63.1,51.1,29.94,NE,44,0.0,1.0,65,0.00,,,0.03,WeatherCatV1.21B27,2013-09-07 12:30:00,
2013-09-07 13:35:00,62.6,51.1,29.94,ENE,77,0.0,1.0,66,0.00,,,0.03,WeatherCatV1.21B27,2013-09-07 12:35:00,
2013-09-07 13:40:00,62.5,50.6,29.94,NE,40,0.0,2.0,65,0.00,,,0.03,WeatherCatV1.21B27,2013-09-07 12:40:00,
2013-09-07 13:45:00,62.9,51.4,29.94,NNE,23,0.0,1.0,66,0.00,,,0.03,WeatherCatV1.21B27,2013-09-07 12:45:00,
2013-09-07 13:50:00,64.1,51.7,29.94,NNE,29,0.0,1.0,64,0.00,,,0.03,WeatherCatV1.21B27,2013-09-07 12:50:00,
2013-09-07 13:55:00,64.8,50.6,29.95,NE,53,0.0,2.0,60,0.00,,,0.03,WeatherCatV1.21B27,2013-09-07 12:55:00,
2013-09-07 14:00:00,65.1,50.9,29.95,East,89,1.0,2.0,60,0.00,,,0.03,WeatherCatV1.21B27,2013-09-07 13:00:00,
2013-09-07 14:05:00,65.0,50.3,29.95,NNE,25,0.0,3.0,59,0.00,,,0.03,WeatherCatV1.21B27,2013-09-07 13:05:00,
2013-09-07 14:10:00,65.1,50.9,29.95,West,265,0.0,2.0,60,0.00,,,0.03,WeatherCatV1.21B27,2013-09-07 13:10:00,
2013-09-07 14:15:00,65.0,50.8,29.95,North,6,0.0,1.0,60,0.00,,,0.03,WeatherCatV1.21B27,2013-09-07 13:15:00,
2013-09-07 14:20:00,65.9,52.5,29.95,ESE,105,2.0,2.0,62,0.00,,,0.03,WeatherCatV1.21B27,2013-09-07 13:20:00,
2013-09-07 14:25:00,66.6,51.8,29.95,East,88,0.0,0.0,59,0.00,,,0.03,WeatherCatV1.21B27,2013-09-07 13:25:00,
2013-09-07 14:30:00,67.3,52.5,29.95,ENE,72,0.0,1.0,59,0.00,,,0.03,WeatherCatV1.21B27,2013-09-07 13:30:00,
2013-09-07 14:35:00,67.3,52.5,29.95,North,8,0.0,2.0,59,0.00,,,0.03,WeatherCatV1.21B27,2013-09-07 13:35:00,
2013-09-07 14:40:00,67.0,50.8,29.95,NE,36,1.0,2.0,56,0.00,,,0.03,WeatherCatV1.21B27,2013-09-07 13:40:00,
2013-09-07 14:45:00,66.4,50.7,29.95,NE,40,0.0,1.0,57,0.00,,,0.03,WeatherCatV1.21B27,2013-09-07 13:45:00,
2013-09-07 14:50:00,65.8,50.6,29.95,NNE,30,0.0,3.0,58,0.00,,,0.03,WeatherCatV1.21B27,2013-09-07 13:50:00,
2013-09-07 14:55:00,65.0,51.7,29.95,NNE,16,0.0,1.0,62,0.00,,,0.03,WeatherCatV1.21B27,2013-09-07 13:55:00,
2013-09-07 15:00:00,64.5,50.8,29.95,NNE,30,0.0,1.0,61,0.00,,,0.03,WeatherCatV1.21B27,2013-09-07 14:00:00,
2013-09-07 15:05:00,64.2,51.3,29.95,NE,47,0.0,1.0,63,0.00,,,0.03,WeatherCatV1.21B27,2013-09-07 14:05:00,
2013-09-07 15:10:00,64.3,51.0,29.95,NNW,344,2.0,2.0,62,0.00,,,0.03,WeatherCatV1.21B27,2013-09-07 14:10:00,
2013-09-07 15:15:00,64.3,50.6,29.95,NE,37,0.0,1.0,61,0.00,,,0.03,WeatherCatV1.21B27,2013-09-07 14:15:00,
2013-09-07 15:20:00,64.1,50.4,29.96,NNE,29,0.0,1.0,61,0.00,,,0.03,WeatherCatV1.21B27,2013-09-07 14:20:00,
2013-09-07 15:25:00,64.1,50.4,29.95,NE,43,1.0,2.0,61,0.00,,,0.03,WeatherCatV1.21B27,2013-09-07 14:25:00,
2013-09-07 15:30:00,64.1,50.8,29.95,North,9,0.0,1.0,62,0.00,,,0.03,WeatherCatV1.21B27,2013-09-07 14:30:00,
2013-09-07 15:35:00,63.9,50.6,29.95,NNE,13,0.0,3.0,62,0.00,,,0.03,WeatherCatV1.21B27,2013-09-07 14:35:00,
2013-09-07 15:40:00,63.5,50.7,29.95,North,5,0.0,2.0,63,0.00,,,0.03,WeatherCatV1.21B27,2013-09-07 14:40:00,
2013-09-07 15:45:00,63.4,50.6,29.95,NNE,27,1.0,1.0,63,0.00,,,0.03,WeatherCatV1.21B27,2013-09-07 14:45:00,
2013-09-07 15:50:00,63.4,50.6,29.96,NE,44,0.0,2.0,63,0.00,,,0.03,WeatherCatV1.21B27,2013-09-07 14:50:00,
2013-09-07 15:55:00,63.3,50.5,29.96,NE,53,0.0,1.0,63,0.00,,,0.03,WeatherCatV1.21B27,2013-09-07 14:55:00,
2013-09-07 16:00:00,63.4,51.4,29.96,NE,34,1.0,1.0,65,0.00,,,0.03,WeatherCatV1.21B27,2013-09-07 15:00:00,
2013-09-07 16:05:00,63.3,50.5,29.96,NNE,32,0.0,0.0,63,0.00,,,0.03,WeatherCatV1.21B27,2013-09-07 15:05:00,
2013-09-07 16:10:00,63.3,51.3,29.96,WSW,255,3.0,3.0,65,0.00,,,0.03,WeatherCatV1.21B27,2013-09-07 15:10:00,
2013-09-07 16:15:00,63.3,50.0,29.96,NE,44,0.0,1.0,62,0.00,,,0.03,WeatherCatV1.21B27,2013-09-07 15:15:00,
2013-09-07 16:20:00,63.4,51.4,29.96,NE,36,0.0,1.0,65,0.00,,,0.03,WeatherCatV1.21B27,2013-09-07 15:20:00,
2013-09-07 16:25:00,63.6,51.2,29.96,NE,35,0.0,1.0,64,0.00,,,0.03,WeatherCatV1.21B27,2013-09-07 15:25:00,
2013-09-07 16:30:00,63.7,50.9,29.96,NE,39,1.0,2.0,63,0.00,,,0.03,WeatherCatV1.21B27,2013-09-07 15:30:00,
2013-09-07 16:35:00,63.7,49.5,29.96,NNE,32,1.0,3.0,60,0.00,,,0.03,WeatherCatV1.21B27,2013-09-07 15:35:00,
2013-09-07 16:40:00,63.6,50.8,29.96,South,176,1.0,1.0,63,0.00,,,0.03,WeatherCatV1.21B27,2013-09-07 15:40:00,
2013-09-07 16:45:00,63.4,50.6,29.97,NE,40,2.0,2.0,63,0.00,,,0.03,WeatherCatV1.21B27,2013-09-07 15:45:00,
2013-09-07 16:50:00,62.9,50.1,29.96,NE,49,2.0,3.0,63,0.00,,,0.03,WeatherCatV1.21B27,2013-09-07 15:50:00,
2013-09-07 16:55:00,62.8,50.4,29.97,NE,37,1.0,2.0,64,0.00,,,0.03,WeatherCatV1.21B27,2013-09-07 15:55:00,
2013-09-07 17:01:00,62.7,50.3,29.97,NE,37,0.0,1.0,64,0.00,,,0.03,WeatherCatV1.21B27,2013-09-07 16:01:00,
2013-09-07 17:05:00,62.5,50.6,29.97,NNE,26,0.0,1.0,65,0.00,,,0.03,WeatherCatV1.21B27,2013-09-07 16:05:00,
2013-09-07 17:10:00,62.3,50.8,29.97,NE,39,0.0,1.0,66,0.00,,,0.03,WeatherCatV1.21B27,2013-09-07 16:10:00,
2013-09-07 17:15:00,62.0,50.1,29.97,NNE,13,1.0,1.0,65,0.00,,,0.03,WeatherCatV1.21B27,2013-09-07 16:15:00,
2013-09-07 17:20:00,62.0,50.5,29.97,NE,37,0.0,1.0,66,0.00,,,0.03,WeatherCatV1.21B27,2013-09-07 16:20:00,
2013-09-07 17:25:00,61.9,50.0,29.97,North,4,0.0,1.0,65,0.00,,,0.03,WeatherCatV1.21B27,2013-09-07 16:25:00,
2013-09-07 17:30:00,61.8,51.1,29.97,NE,40,0.0,0.0,68,0.00,,,0.03,WeatherCatV1.21B27,2013-09-07 16:30:00,
2013-09-07 17:35:00,61.6,49.7,29.97,NE,47,1.0,2.0,65,0.00,,,0.03,WeatherCatV1.21B27,2013-09-07 16:35:00,
2013-09-07 17:40:00,61.5,50.4,29.97,NNW,335,1.0,1.0,67,0.00,,,0.03,WeatherCatV1.21B27,2013-09-07 16:40:00,
2013-09-07 17:45:00,61.4,50.3,29.97,NNE,16,0.0,1.0,67,0.00,,,0.03,WeatherCatV1.21B27,2013-09-07 16:45:00,
2013-09-07 17:50:00,61.4,50.3,29.97,North,354,0.0,1.0,67,0.00,,,0.03,WeatherCatV1.21B27,2013-09-07 16:50:00,
2013-09-07 17:55:00,61.5,50.8,29.98,NNW,344,1.0,2.0,68,0.00,,,0.03,WeatherCatV1.21B27,2013-09-07 16:55:00,
2013-09-07 18:00:00,61.4,50.3,29.98,NE,51,0.0,1.0,67,0.00,,,0.03,WeatherCatV1.21B27,2013-09-07 17:00:00,
2013-09-07 18:05:00,61.2,50.5,29.98,NE,35,0.0,3.0,68,0.00,,,0.03,WeatherCatV1.21B27,2013-09-07 17:05:00,
2013-09-07 18:10:00,61.1,50.1,29.98,NNE,32,1.0,1.0,67,0.00,,,0.03,WeatherCatV1.21B27,2013-09-07 17:10:00,
2013-09-07 18:15:00,60.9,50.7,29.98,East,91,1.0,1.0,69,0.00,,,0.03,WeatherCatV1.21B27,2013-09-07 17:15:00,
2013-09-07 18:20:00,60.8,50.6,29.98,NNW,342,0.0,1.0,69,0.00,,,0.03,WeatherCatV1.21B27,2013-09-07 17:20:00,
2013-09-07 18:26:00,60.6,50.8,29.98,NW,322,0.0,1.0,70,0.00,,,0.03,WeatherCatV1.21B27,2013-09-07 17:26:00,
2013-09-07 18:31:00,60.5,50.3,29.98,NNE,23,0.0,1.0,69,0.00,,,0.03,WeatherCatV1.21B27,2013-09-07 17:31:00,
2013-09-07 18:36:00,60.4,50.2,29.98,NNE,18,0.0,0.0,69,0.00,,,0.03,WeatherCatV1.21B27,2013-09-07 17:36:00,
2013-09-07 18:41:00,60.3,49.7,29.99,NNE,13,0.0,1.0,68,0.00,,,0.03,WeatherCatV1.21B27,2013-09-07 17:41:00,
2013-09-07 18:46:00,60.2,50.0,29.99,SE,125,1.0,1.0,69,0.00,,,0.03,WeatherCatV1.21B27,2013-09-07 17:46:00,
2013-09-07 18:51:00,60.1,49.9,29.99,NE,40,0.0,0.0,69,0.00,,,0.03,WeatherCatV1.21B27,2013-09-07 17:51:00,
2013-09-07 18:56:00,59.9,49.7,29.99,NNE,20,0.0,1.0,69,0.00,,,0.03,WeatherCatV1.21B27,2013-09-07 17:56:00,
2013-09-07 19:01:00,59.6,50.2,29.99,North,359,0.0,1.0,71,0.00,,,0.03,WeatherCatV1.21B27,2013-09-07 18:01:00,
2013-09-07 19:06:00,59.2,49.4,30.00,North,4,0.0,0.0,70,0.00,,,0.03,WeatherCatV1.21B27,2013-09-07 18:06:00,
2013-09-07 19:11:00,58.8,49.4,30.00,North,4,0.0,0.0,71,0.00,,,0.03,WeatherCatV1.21B27,2013-09-07 18:11:00,
2013-09-07 19:16:00,58.3,49.3,30.00,North,4,0.0,0.0,72,0.00,,,0.03,WeatherCatV1.21B27,2013-09-07 18:16:00,
2013-09-07 19:21:00,57.9,49.3,30.00,North,4,0.0,0.0,73,0.00,,,0.03,WeatherCatV1.21B27,2013-09-07 18:21:00,
2013-09-07 19:26:00,57.3,49.1,30.00,NNW,347,0.0,0.0,74,0.00,,,0.03,WeatherCatV1.21B27,2013-09-07 18:26:00,
2013-09-07 19:31:00,56.8,49.0,30.00,NNW,347,0.0,0.0,75,0.00,,,0.03,WeatherCatV1.21B27,2013-09-07 18:31:00,
2013-09-07 19:36:00,56.3,48.8,30.00,NNW,347,0.0,0.0,76,0.00,,,0.03,WeatherCatV1.21B27,2013-09-07 18:36:00,
2013-09-07 19:41:00,55.8,48.7,30.00,NNW,347,0.0,0.0,77,0.00,,,0.03,WeatherCatV1.21B27,2013-09-07 18:41:00,
2013-09-07 19:46:00,55.3,48.2,30.01,NNW,347,0.0,0.0,77,0.00,,,0.03,WeatherCatV1.21B27,2013-09-07 18:46:00,
2013-09-07 19:51:00,54.9,48.2,30.01,NNW,347,0.0,0.0,78,0.00,,,0.03,WeatherCatV1.21B27,2013-09-07 18:51:00,
2013-09-07 19:56:00,54.5,48.1,30.01,NNW,347,0.0,0.0,79,0.00,,,0.03,WeatherCatV1.21B27,2013-09-07 18:56:00,
2013-09-07 20:01:00,54.1,48.1,30.01,NNW,347,0.0,0.0,80,0.00,,,0.03,WeatherCatV1.21B27,2013-09-07 19:01:00,
2013-09-07 20:06:00,53.7,47.7,30.01,NNW,347,0.0,0.0,80,0.00,,,0.03,WeatherCatV1.21B27,2013-09-07 19:06:00,
2013-09-07 20:11:00,53.4,47.7,30.01,NNW,347,0.0,0.0,81,0.00,,,0.03,WeatherCatV1.21B27,2013-09-07 19:11:00,
2013-09-07 20:16:00,53.2,47.8,30.02,NNW,347,0.0,0.0,82,0.00,,,0.03,WeatherCatV1.21B27,2013-09-07 19:16:00,
2013-09-07 20:21:00,52.9,47.9,30.02,NNW,347,0.0,0.0,83,0.00,,,0.03,WeatherCatV1.21B27,2013-09-07 19:21:00,
2013-09-07 20:26:00,52.6,47.6,30.02,NNW,347,0.0,0.0,83,0.00,,,0.03,WeatherCatV1.21B27,2013-09-07 19:26:00,
2013-09-07 20:31:00,52.3,47.6,30.02,NNW,347,0.0,0.0,84,0.00,,,0.03,WeatherCatV1.21B27,2013-09-07 19:31:00,
2013-09-07 20:36:00,52.1,47.7,30.02,NNW,347,0.0,0.0,85,0.00,,,0.03,WeatherCatV1.21B27,2013-09-07 19:36:00,
2013-09-07 20:41:00,52.0,47.6,30.02,NNW,347,0.0,0.0,85,0.00,,,0.03,WeatherCatV1.21B27,2013-09-07 19:41:00,
2013-09-07 20:46:00,51.8,47.8,30.03,NNW,347,0.0,0.0,86,0.00,,,0.03,WeatherCatV1.21B27,2013-09-07 19:46:00,
2013-09-07 20:51:00,51.7,47.7,30.03,NNW,347,0.0,0.0,86,0.00,,,0.03,WeatherCatV1.21B27,2013-09-07 19:51:00,
2013-09-07 20:56:00,51.5,47.5,30.02,NNW,347,0.0,0.0,86,0.00,,,0.03,WeatherCatV1.21B27,2013-09-07 19:56:00,
2013-09-07 21:01:00,51.2,47.2,30.03,NNW,347,0.0,0.0,86,0.00,,,0.03,WeatherCatV1.21B27,2013-09-07 20:01:00,
2013-09-07 21:06:00,50.9,47.2,30.03,NNW,347,0.0,0.0,87,0.00,,,0.03,WeatherCatV1.21B27,2013-09-07 20:06:00,
2013-09-07 21:11:00,50.7,47.3,30.03,NNW,347,0.0,0.0,88,0.00,,,0.03,WeatherCatV1.21B27,2013-09-07 20:11:00,
2013-09-07 21:16:00,50.5,47.1,30.03,NNW,347,0.0,0.0,88,0.00,,,0.03,WeatherCatV1.21B27,2013-09-07 20:16:00,
2013-09-07 21:21:00,50.3,46.9,30.03,NNW,347,0.0,0.0,88,0.00,,,0.03,WeatherCatV1.21B27,2013-09-07 20:21:00,
2013-09-07 21:26:00,50.0,46.9,30.03,NNW,347,0.0,0.0,89,0.00,,,0.03,WeatherCatV1.21B27,2013-09-07 20:26:00,
2013-09-07 21:31:00,49.8,46.7,30.03,NNW,347,0.0,0.0,89,0.00,,,0.03,WeatherCatV1.21B27,2013-09-07 20:31:00,
2013-09-07 21:36:00,49.6,46.8,30.03,NNW,347,0.0,0.0,90,0.00,,,0.03,WeatherCatV1.21B27,2013-09-07 20:36:00,
2013-09-07 21:41:00,49.4,46.6,30.03,NNW,347,0.0,0.0,90,0.00,,,0.03,WeatherCatV1.21B27,2013-09-07 20:41:00,
2013-09-07 21:46:00,49.2,46.7,30.03,NNW,347,0.0,0.0,91,0.00,,,0.03,WeatherCatV1.21B27,2013-09-07 20:46:00,
2013-09-07 21:51:00,49.0,46.5,30.03,NNW,347,0.0,0.0,91,0.00,,,0.03,WeatherCatV1.21B27,2013-09-07 20:51:00,
2013-09-07 21:56:00,48.8,46.3,30.03,NNW,347,0.0,0.0,91,0.00,,,0.03,WeatherCatV1.21B27,2013-09-07 20:56:00,
2013-09-07 22:01:00,48.7,46.5,30.03,NNW,347,0.0,0.0,92,0.00,,,0.03,WeatherCatV1.21B27,2013-09-07 21:01:00,
2013-09-07 22:06:00,48.5,46.3,30.04,NNW,347,0.0,0.0,92,0.00,,,0.03,WeatherCatV1.21B27,2013-09-07 21:06:00,
2013-09-07 22:11:00,48.4,46.2,30.04,NNW,347,0.0,0.0,92,0.00,,,0.03,WeatherCatV1.21B27,2013-09-07 21:11:00,
2013-09-07 22:16:00,48.3,46.1,30.03,NNW,347,0.0,0.0,92,0.00,,,0.03,WeatherCatV1.21B27,2013-09-07 21:16:00,
2013-09-07 22:21:00,48.1,46.2,30.04,NNW,347,0.0,0.0,93,0.00,,,0.03,WeatherCatV1.21B27,2013-09-07 21:21:00,
2013-09-07 22:26:00,48.1,46.2,30.04,NNW,347,0.0,0.0,93,0.00,,,0.03,WeatherCatV1.21B27,2013-09-07 21:26:00,
2013-09-07 22:31:00,48.0,46.1,30.04,NNW,347,0.0,0.0,93,0.00,,,0.03,WeatherCatV1.21B27,2013-09-07 21:31:00,
2013-09-07 22:36:00,47.9,46.0,30.04,NNW,347,0.0,0.0,93,0.00,,,0.03,WeatherCatV1.21B27,2013-09-07 21:36:00,
2013-09-07 22:41:00,47.8,45.9,30.04,NNW,347,0.0,0.0,93,0.00,,,0.03,WeatherCatV1.21B27,2013-09-07 21:41:00,
2013-09-07 22:46:00,47.7,46.1,30.04,NNW,347,0.0,0.0,94,0.00,,,0.03,WeatherCatV1.21B27,2013-09-07 21:46:00,
2013-09-07 22:51:00,47.6,46.0,30.04,NNW,347,0.0,0.0,94,0.00,,,0.03,WeatherCatV1.21B27,2013-09-07 21:51:00,
2013-09-07 22:56:00,47.5,45.9,30.04,NNW,347,0.0,0.0,94,0.00,,,0.03,WeatherCatV1.21B27,2013-09-07 21:56:00,
2013-09-07 23:01:00,47.4,45.8,30.04,NNW,347,0.0,0.0,94,0.00,,,0.03,WeatherCatV1.21B27,2013-09-07 22:01:00,
2013-09-07 23:06:00,47.2,45.6,30.04,NNW,347,0.0,0.0,94,0.00,,,0.03,WeatherCatV1.21B27,2013-09-07 22:06:00,
2013-09-07 23:11:00,47.0,45.4,30.04,NNW,347,0.0,0.0,94,0.00,,,0.03,WeatherCatV1.21B27,2013-09-07 22:11:00,
2013-09-07 23:16:00,46.9,45.3,30.04,NNW,347,0.0,0.0,94,0.00,,,0.03,WeatherCatV1.21B27,2013-09-07 22:16:00,
2013-09-07 23:21:00,46.9,45.5,30.03,NNW,347,0.0,0.0,95,0.00,,,0.03,WeatherCatV1.21B27,2013-09-07 22:21:00,
2013-09-07 23:26:00,46.8,45.2,30.03,NNW,347,0.0,0.0,94,0.00,,,0.03,WeatherCatV1.21B27,2013-09-07 22:26:00,
2013-09-07 23:31:00,46.8,45.2,30.03,NNW,347,0.0,0.0,94,0.00,,,0.03,WeatherCatV1.21B27,2013-09-07 22:31:00,
2013-09-07 23:36:00,46.8,45.4,30.03,NNW,347,0.0,0.0,95,0.00,,,0.03,WeatherCatV1.21B27,2013-09-07 22:36:00,
2013-09-07 23:41:00,46.8,45.4,30.03,NNW,347,0.0,0.0,95,0.00,,,0.03,WeatherCatV1.21B27,2013-09-07 22:41:00,
2013-09-07 23:46:00,46.8,45.4,30.03,NNW,347,0.0,0.0,95,0.00,,,0.03,WeatherCatV1.21B27,2013-09-07 22:46:00,
2013-09-07 23:51:00,46.7,45.3,30.04,NNW,347,0.0,0.0,95,0.00,,,0.03,WeatherCatV1.21B27,2013-09-07 22:51:00,
2013-09-07 23:56:00,46.7,45.3,30.04,NNW,347,0.0,0.0,95,0.00,,,0.03,WeatherCatV1.21B27,2013-09-07 22:56:00,